"Pseudo-MPEC" for P12fYTs

Created 2025 Oct 11 3:35:10 UT using Find_Orb

Click here for an explanation of pseudo-MPECs

 
 Astrometry: 
     P12fYTs* C2025 09 30.43125001 03 28.897-10 48 04.30   ~9ULZ 22.31wXNEOCPF51
     P12fYTs  C2025 09 30.44308301 03 30.049-10 47 24.45   ~9ULZ 21.75wXNEOCPF51
     P12fYTs  C2025 09 30.45492701 03 31.218-10 46 44.54   ~9ULZ 21.78wXNEOCPF51
     P12fYTs 3C2025 10 01.41612401 05 23.377-09 52 43.23   ~A1FK 22.05GVNEOCPT14
     P12fYTs 3C2025 10 01.41806401 05 23.560-09 52 36.70   ~A1FK 22.05GVNEOCPT14
     P12fYTs KC2025 10 02.42425201 07 15.920-08 55 45.77   ~A2AZ 22.24GVNEOCPV06
     P12fYTs KC2025 10 02.42743001 07 16.230-08 55 34.90   ~A2AZ 21.80GVNEOCPV06

Station data:
(F51) Pan-STARRS 1, Haleakala  (N20.707234 W156.255910)  US/Hawaii.
   Observers J. Herman, T. Lowe, P. Minguez, A. Schultz, I. Smith. Measurers
   K. Chambers, T. de Boer, J. Fairlamb, H. Gao, M. Huber, C.-C. Lin, E.
   Magnier, Y. Ramanjooloo, R. Wainscoat, R. Weryk. 1.8-m Ritchey-Chrétien +
   CCD.
(T14) Mauna Kea-UH/Tholen NEO Follow-Up (CFHT)  (N19.825252 W155.468876)
   US/Hawaii.  Observer R. Weryk. 3.6-m Canada-France-Hawaii Telescope.
(V06) Catalina Sky Survey-Kuiper  (N32.416871 W110.732550)  US/Arizona.
   Measurers T. Beuden, V. F. Carvajal, D. Fay, J. B. Fazekas, D. C. Fuls, A.
   R. Gibbs, A. D. Grauer, H. Gröller, J. K. Hogan, R. A. Kowalski, S. M.
   Larson, G. J. Leonard, D. Rankin, R. L. Seaman, F. C. Shelly, K. W.
   Wierzchoś. 1.55-m reflector + CCD.

Orbital elements:  P12fYTs
   Perihelion 2025 Sep 28.461376 +/- 0.101 TT = 11:04:22.8 (JD 2460946.961376)
Epoch 2025 Oct  2.0 TT = JDT 2460950.5   Earth MOID: 0.1788   Ma: 0.0949
M   0.797230537 +/- 0.019           (J2000 ecliptic)             AutoNEOCP
n   0.225293913 +/- 0.00579         Peri.  335.205590 +/- 0.12
a   2.674872444 +/- 0.0459          Node    30.390911 +/- 0.025
e   0.56114065 +/- 0.00686          Incl.    6.270669 +/- 0.053
P   4.37476                H 24.71  G  0.15   U  9.3
q 1.173892770 +/- 0.00177    Q 4.175852118 +/- 0.09
From 7 observations 2025 Sept. 30-Oct. 2 (47.9 hr); mean residual 0".09
Residuals in arcseconds: 
250930 F51  .07-  .19-    251001 T14  .02+  .01+    251002 V06  .07-  .01+    
250930 F51  .09-  .01+    251001 T14  .02-  .01-    
250930 F51  .15+  .19+    251002 V06  .01-  .05+    

Ephemerides (geocentric):
Date (UTC) HH   RA             Dec           delta  r     elong  mag " sig PA
---- --------  ------------   ------------  ------ ------ -----  --- --------
2025 10 11 04  01 22 20.153   -00 38 43.11  .18702 1.1836 171.3 22.0 11.7   8
2025 10 11 05  01 22 24.042   -00 36 24.63  .18709 1.1836 171.3 22.0 11.8   8
2025 10 11 06  01 22 27.927   -00 34 06.22  .18715 1.1837 171.4 22.0 11.9   8
2025 10 11 07  01 22 31.809   -00 31 47.87  .18721 1.1837 171.4 22.0 11.9   8
2025 10 11 08  01 22 35.686   -00 29 29.58  .18728 1.1838 171.4 22.0 12.0   8
2025 10 11 09  01 22 39.560   -00 27 11.36  .18734 1.1839 171.5 22.0 12.1   8
2025 10 11 10  01 22 43.430   -00 24 53.20  .18740 1.1839 171.5 22.0 12.2   8
2025 10 11 11  01 22 47.296   -00 22 35.12  .18747 1.1840 171.5 22.0 12.3   8
2025 10 11 12  01 22 51.157   -00 20 17.09  .18753 1.1841 171.5 22.0 12.4   8
2025 10 11 13  01 22 55.015   -00 17 59.14  .18760 1.1841 171.6 22.0 12.4   8
2025 10 11 14  01 22 58.870   -00 15 41.25  .18766 1.1842 171.6 22.0 12.5   8
2025 10 11 15  01 23 02.720   -00 13 23.43  .18772 1.1843 171.6 22.0 12.6   8
2025 10 11 16  01 23 06.566   -00 11 05.68  .18779 1.1843 171.7 22.0 12.7   8
2025 10 11 17  01 23 10.408   -00 08 47.99  .18786 1.1844 171.7 22.0 12.8   8
2025 10 11 18  01 23 14.247   -00 06 30.38  .18792 1.1845 171.7 22.0 12.9   8
2025 10 11 19  01 23 18.081   -00 04 12.83  .18799 1.1845 171.8 22.0 12.9   8
2025 10 11 20  01 23 21.912   -00 01 55.35  .18805 1.1846 171.8 22.0 13.0   8
2025 10 11 21  01 23 25.739   +00 00 22.05  .18812 1.1847 171.8 22.0 13.1   8
2025 10 11 22  01 23 29.562   +00 02 39.39  .18819 1.1847 171.9 22.0 13.2   8
2025 10 11 23  01 23 33.381   +00 04 56.66  .18825 1.1848 171.9 22.0 13.3   8
2025 10 12 00  01 23 37.196   +00 07 13.85  .18832 1.1849 171.9 22.0 13.4   8
2025 10 12 01  01 23 41.007   +00 09 30.98  .18839 1.1849 171.9 22.0 13.5   8
2025 10 12 02  01 23 44.814   +00 11 48.03  .18845 1.1850 172.0 22.0 13.5   8
2025 10 12 03  01 23 48.618   +00 14 05.01  .18852 1.1851 172.0 22.0 13.6   8
2025 10 12 04  01 23 52.417   +00 16 21.92  .18859 1.1851 172.0 22.0 13.7   8
2025 10 12 05  01 23 56.213   +00 18 38.75  .18866 1.1852 172.1 22.0 13.8   8
2025 10 12 06  01 24 00.005   +00 20 55.51  .18873 1.1853 172.1 22.0 13.9   8
2025 10 12 07  01 24 03.793   +00 23 12.20  .18880 1.1853 172.1 22.0 14.0   8
2025 10 12 08  01 24 07.577   +00 25 28.82  .18887 1.1854 172.2 22.0 14.1   8
2025 10 12 09  01 24 11.357   +00 27 45.36  .18893 1.1855 172.2 22.0 14.1   8
2025 10 12 10  01 24 15.134   +00 30 01.82  .18900 1.1855 172.2 22.0 14.2   8
2025 10 12 11  01 24 18.906   +00 32 18.21  .18907 1.1856 172.2 22.0 14.3   8
2025 10 12 12  01 24 22.675   +00 34 34.53  .18914 1.1857 172.3 22.0 14.4   8
2025 10 12 13  01 24 26.440   +00 36 50.77  .18921 1.1857 172.3 22.0 14.5   8
2025 10 12 14  01 24 30.201   +00 39 06.93  .18929 1.1858 172.3 22.0 14.6   8
2025 10 12 15  01 24 33.958   +00 41 23.02  .18936 1.1859 172.4 22.0 14.7   8
2025 10 12 16  01 24 37.711   +00 43 39.03  .18943 1.1859 172.4 22.0 14.7   8
2025 10 12 17  01 24 41.461   +00 45 54.97  .18950 1.1860 172.4 22.0 14.8   8
2025 10 12 18  01 24 45.206   +00 48 10.82  .18957 1.1861 172.5 22.0 14.9   8
2025 10 12 19  01 24 48.948   +00 50 26.60  .18964 1.1862 172.5 22.0 15.0   8
2025 10 12 20  01 24 52.686   +00 52 42.30  .18971 1.1862 172.5 22.0 15.1   8
2025 10 12 21  01 24 56.420   +00 54 57.93  .18979 1.1863 172.5 22.0 15.2   8
2025 10 12 22  01 25 00.150   +00 57 13.47  .18986 1.1864 172.6 22.0 15.3   8
2025 10 12 23  01 25 03.877   +00 59 28.94  .18993 1.1864 172.6 22.0 15.4   8
2025 10 13 00  01 25 07.600   +01 01 44.32  .19000 1.1865 172.6 22.0 15.4   8
2025 10 13 01  01 25 11.318   +01 03 59.63  .19008 1.1866 172.7 22.0 15.5   8
2025 10 13 02  01 25 15.033   +01 06 14.85  .19015 1.1867 172.7 22.0 15.6   8
2025 10 13 03  01 25 18.745   +01 08 30.00  .19022 1.1867 172.7 22.0 15.7   8